Date String (YYYY-MM-DD hh:mm:ss) UTC,Instrument flags,Ambient pressure (hPa),Sample flow (lpm),Bypass flow (lpm),Sample temperature (°C),Ambient temperature (°C),ASC tube jacket temperature (°C),LED temperature (°C),Box temperature (°C),Sample RH (%),Span deviation,Mass concentration (μg/m³),Mass concentration (μg/m³),Mass concentration (μg/m³)
DateTimeUTC,F1_M11,P_M11,Q1_M11,Q2_M11,T1_M11,T2_M11,T3_M11,T4_M11,T5_M11,U1_M11,ZSPAN_M11,X2_M11,X0_M11,X1_M11
2022-01-05 21:00:00,,0816.3,5.01,0.00,23.8,24.0,00.0,32.7,25.6,10.4,0000.0,0003.38,0007.62,0002.89
2022-01-05 21:01:00,,0816.4,5.01,0.00,23.7,23.8,00.0,32.7,25.5,10.4,0000.0,0003.34,0007.13,0002.84
2022-01-05 21:02:00,,0816.5,5.00,0.00,23.7,23.5,00.0,32.6,25.3,10.4,0000.0,0003.30,0006.86,0002.82
2022-01-05 21:03:00,,0816.5,5.00,0.00,23.6,23.3,00.0,32.6,25.2,10.5,0000.0,0003.27,0006.80,0002.80
2022-01-05 21:04:00,,0816.5,5.01,0.00,23.6,23.1,00.0,32.6,25.1,10.6,0000.0,0003.20,0006.63,0002.75
2022-01-05 21:05:00,,0816.5,5.01,0.00,23.5,22.9,00.0,32.6,25.0,10.7,0000.0,0003.16,0006.58,0002.70
2022-01-05 21:06:00,,0816.5,4.99,0.00,23.4,22.7,00.0,32.6,25.0,10.8,0000.0,0003.12,0006.34,0002.65
2022-01-05 21:07:00,,0816.5,5.01,0.00,23.4,22.6,00.0,32.5,24.9,10.9,0000.0,0003.09,0006.83,0002.59
2022-01-05 21:08:00,,0816.7,5.01,0.00,23.3,22.5,00.0,32.5,24.8,10.9,0000.0,0002.99,0007.46,0002.52
2022-01-05 21:09:00,,0816.9,5.01,0.00,23.2,22.4,00.0,32.5,24.7,11.1,0000.0,0002.92,0007.35,0002.46
2022-01-05 21:10:00,,0816.9,4.99,0.00,23.1,22.3,00.0,32.4,24.6,11.2,0000.0,0002.86,0006.18,0002.40
2022-01-05 21:11:00,,0816.9,5.00,0.00,23.1,22.2,00.0,32.4,24.5,11.2,0000.0,0002.80,0005.82,0002.36
2022-01-05 21:12:00,,0817.0,5.02,0.00,23.0,22.1,00.0,32.4,24.5,11.3,0000.0,0002.75,0005.75,0002.32
2022-01-05 21:13:00,,0817.1,4.99,0.00,23.0,22.1,00.0,32.3,24.4,11.3,0000.0,0002.68,0005.68,0002.27
2022-01-05 21:14:00,,0816.8,5.00,0.00,22.9,22.0,00.0,32.3,24.4,11.4,0000.0,0002.63,0005.52,0002.23
2022-01-05 21:15:00,,0817.0,4.99,0.00,22.9,21.9,00.0,32.2,24.3,11.5,0000.0,0002.65,0005.54,0002.21
2022-01-05 21:16:00,,0817.0,5.00,0.00,22.8,21.9,00.0,32.2,24.3,11.5,0000.0,0002.68,0005.84,0002.20
2022-01-05 21:17:00,,0817.0,4.98,0.00,22.8,21.8,00.0,32.1,24.3,11.6,0000.0,0002.69,0006.24,0002.17
2022-01-05 21:18:00,,0817.1,5.01,0.00,22.8,21.8,00.0,32.1,24.3,11.6,0000.0,0002.68,0006.43,0002.15
2022-01-05 21:19:00,,0817.1,5.00,0.00,22.8,22.2,00.0,32.1,24.4,11.6,0000.0,0002.74,0005.41,0002.13
2022-01-05 21:20:00,,0817.3,5.00,0.00,22.9,23.0,00.0,32.1,24.7,11.6,0000.0,0002.76,0006.45,0002.13
2022-01-05 21:21:00,,0817.3,4.99,0.00,23.1,23.8,00.0,32.1,25.0,11.4,0000.0,0002.80,0006.99,0002.14
2022-01-05 21:22:00,,0817.5,5.02,0.00,23.2,23.8,00.0,32.2,25.0,11.1,0000.0,0002.86,0007.95,0002.15
2022-01-05 21:23:00,,0817.6,4.98,0.00,23.2,23.5,00.0,32.2,24.9,10.9,0000.0,0002.94,0008.21,0002.15
2022-01-05 21:24:00,,0817.6,5.01,0.00,23.1,23.2,00.0,32.2,24.7,10.8,0000.0,0003.01,0008.37,0002.15
2022-01-05 21:25:00,,0817.6,5.00,0.00,23.0,22.9,00.0,32.1,24.6,10.7,0000.0,0003.07,0008.52,0002.15
2022-01-05 21:26:00,,0817.6,5.01,0.00,23.0,22.7,00.0,32.1,24.5,10.6,0000.0,0003.09,0008.59,0002.16
2022-01-05 21:27:00,,0817.7,5.00,0.00,22.9,22.6,00.0,32.1,24.5,10.6,0000.0,0003.13,0008.95,0002.19
2022-01-05 21:28:00,,0817.7,5.00,0.00,23.0,23.2,00.0,32.1,24.8,10.4,0000.0,0003.14,0009.46,0002.22
2022-01-05 21:29:00,,0817.8,4.99,0.00,23.2,23.9,00.0,32.2,25.0,10.3,0000.0,0003.19,0010.41,0002.25
2022-01-05 21:30:00,,0817.9,5.01,0.00,23.3,24.0,00.0,32.2,25.1,10.2,0000.0,0003.20,0010.38,0002.31
2022-01-05 21:31:00,,0817.9,5.01,0.00,23.3,23.6,00.0,32.2,25.0,10.1,0000.0,0003.22,0010.10,0002.36
2022-01-05 21:32:00,,0817.9,4.99,0.00,23.3,23.3,00.0,32.2,24.9,10.2,0000.0,0003.23,0010.25,0002.39
2022-01-05 21:33:00,,0817.9,5.01,0.00,23.2,23.1,00.0,32.2,24.8,10.2,0000.0,0003.26,0009.79,0002.43
2022-01-05 21:34:00,,0817.8,4.99,0.00,23.1,22.8,00.0,32.2,24.6,10.2,0000.0,0003.27,0010.16,0002.48
2022-01-05 21:35:00,,0817.8,5.02,0.00,23.0,22.6,00.0,32.2,24.5,10.3,0000.0,0003.28,0010.13,0002.53
2022-01-05 21:36:00,,0817.9,4.99,0.00,23.0,22.4,00.0,32.1,24.4,10.3,0000.0,0003.31,0010.09,0002.58
2022-01-05 21:37:00,,0818.0,4.99,0.00,22.9,22.3,00.0,32.1,24.3,10.3,0000.0,0003.38,0010.27,0002.64
2022-01-05 21:38:00,,0818.0,5.00,0.00,22.9,22.5,00.0,32.1,24.4,10.2,0000.0,0003.45,0010.23,0002.75
2022-01-05 21:39:00,,0818.0,5.01,0.00,23.0,23.1,00.0,32.1,24.7,10.0,0000.0,0003.54,0010.49,0002.86
2022-01-05 21:40:00,,0818.1,4.99,0.00,23.2,23.7,00.0,32.2,25.0,09.8,0000.0,0003.61,0009.84,0002.98
2022-01-05 21:41:00,,0818.0,5.00,0.00,23.2,23.5,00.0,32.2,25.0,09.6,0000.0,0003.74,0010.61,0003.09
2022-01-05 21:42:00,,0818.2,5.01,0.00,23.1,23.2,00.0,32.2,24.7,09.5,0001.2,0003.82,0010.69,0003.17
2022-01-05 21:43:00,,0818.3,5.01,0.00,23.1,23.0,00.0,32.2,24.6,09.4,0001.9,0003.92,0010.66,0003.25
2022-01-05 21:44:00,,0818.4,4.99,0.00,23.0,22.7,00.0,32.1,24.5,09.4,0001.4,0004.01,0010.84,0003.34
2022-01-05 21:45:00,,0818.4,5.02,0.00,22.9,22.5,00.0,32.1,24.4,09.4,0001.5,0004.15,0010.38,0003.43
2022-01-05 21:46:00,,0818.5,5.00,0.00,22.8,22.3,00.0,32.1,24.2,09.4,0001.7,0004.29,0010.82,0003.53
2022-01-05 21:47:00,,0818.6,5.00,0.00,22.8,22.2,00.0,32.1,24.2,09.4,0001.5,0004.43,0011.10,0003.62
2022-01-05 21:48:00,,0818.7,4.99,0.00,22.9,22.7,00.0,32.1,24.5,09.3,0001.5,0004.55,0011.42,0003.71
2022-01-05 21:49:00,,0818.7,4.99,0.00,23.0,23.4,00.0,32.1,24.8,09.2,0001.7,0004.64,0012.42,0003.77
2022-01-05 21:50:00,,0818.7,5.01,0.00,23.1,23.7,00.0,32.1,25.0,09.1,0002.1,0004.70,0012.88,0003.82
2022-01-05 21:51:00,,0818.7,4.99,0.00,23.1,23.4,00.0,32.1,24.9,09.1,0002.1,0004.75,0012.91,0003.87
2022-01-05 21:52:00,,0818.8,5.00,0.00,23.1,23.1,00.0,32.1,24.7,09.1,0001.8,0004.80,0012.58,0003.92
2022-01-05 21:53:00,,0818.8,5.00,0.00,23.0,22.9,00.0,32.1,24.6,09.1,0001.4,0004.84,0012.35,0003.94
2022-01-05 21:54:00,,0818.8,5.00,0.00,22.9,22.5,00.0,32.1,24.4,09.2,0001.2,0004.87,0012.15,0003.96
2022-01-05 21:55:00,,0818.8,5.00,0.00,22.9,22.4,00.0,32.1,24.4,09.2,0001.4,0004.91,0012.10,0003.98
2022-01-05 21:56:00,,0818.9,5.01,0.00,22.9,22.3,00.0,32.0,24.3,09.2,0001.5,0004.90,0012.48,0003.99
2022-01-05 21:57:00,,0818.9,4.99,0.00,22.8,22.2,00.0,32.0,24.3,09.2,0001.4,0004.94,0012.75,0004.01
2022-01-05 21:58:00,,0818.9,5.00,0.00,22.7,22.1,00.0,32.0,24.2,09.2,0001.5,0004.98,0013.17,0004.02
2022-01-05 21:59:00,,0818.9,5.00,0.00,22.7,22.3,00.0,32.0,24.3,09.3,0001.6,0005.00,0013.52,0004.03
